Wind_Speed
40 40 40 39 39 39 38 38 38 38 40 41 42 43 43 43 44 44 44 44 43 42 42 42 41 40 38 37 35 34 32 31 31 32 35 39 40 39 38 38 37 36 35 34 33 32 31 30 30 29 29 29 29 29 28 27 27 27 27 26 25 23 22 19 16 16 18 24 38 43 34 22 19 19 23 24 26 28 24 23 25 26 25 21 22 23 20 21
40 40 40 40 39 39 38 38 38 38 38 40 41 42 43 43 43 44 44 44 43 43 42 42 42 41 39 38 36 35 33 32 30 29 32 36 38 39 40 38 37 36 35 35 34 33 32 31 30 29 29 28 28 28 28 27 27 26 26 25 24 23 19 15 18 22 28 36 44 41 28 18 17 20 24 24 24 28 28 26 25 28 27 23 23 23 23 23
39 39 40 40 40 40 39 39 38 38 38 39 40 41 42 42 43 44 44 44 43 43 43 42 43 42 40 39 38 36 34 32 30 29 30 33 35 39 40 39 37 36 35 35 34 33 33 31 30 29 29 28 27 28 28 26 27 25 25 25 23 23 19 18 28 35 37 41 41 34 22 16 19 22 25 23 23 28 29 25 26 29 29 26 25 25 26 24
38 38 38 39 39 40 40 40 40 39 39 39 39 40 41 42 42 43 44 44 44 44 43 43 43 43 42 41 39 37 35 33 31 30 29 30 32 35 39 40 38 36 36 35 34 34 33 32 31 30 29 29 28 28 28 26 25 25 25 24 23 24 26 29 38 39 37 38 35 27 17 16 23 25 22 22 24 27 27 25 26 29 30 27 26 26 27 25
39 37 37 37 37 38 39 39 39 40 40 40 40 40 40 41 42 43 44 44 44 44 44 43 43 43 43 42 40 39 37 35 35 31 28 29 30 30 34 38 39 37 36 35 35 34 33 32 31 31 30 29 28 28 27 25 25 25 25 23 25 29 33 37 38 37 35 33 30 21 16 23 29 25 20 19 22 25 27 28 27 27 29 27 25 25 26 24
40 38 37 36 36 36 37 37 38 39 40 40 40 41 41 41 42 43 44 44 44 45 45 44 44 43 43 43 42 40 38 38 37 30 28 29 28 27 29 34 38 39 38 36 35 34 33 33 32 31 31 30 29 28 27 26 25 25 23 23 28 32 33 35 36 34 31 27 27 23 25 32 30 23 20 19 23 27 29 31 28 24 26 27 26 24 24 23
40 39 38 37 36 36 36 36 37 38 39 40 41 41 41 41 42 43 44 44 45 45 45 45 45 43 43 44 43 42 40 40 37 31 29 30 29 26 25 28 34 38 39 37 35 34 33 33 32 32 31 31 30 29 27 27 26 26 24 24 28 30 29 32 35 31 25 24 29 29 28 29 24 20 21 22 27 30 30 31 28 22 21 23 23 23 21 22
40 40 39 39 38 37 37 37 37 38 38 39 40 41 42 42 43 43 44 44 45 46 46 46 46 45 44 44 44 43 41 39 39 34 31 31 30 27 25 26 29 34 37 38 36 35 34 34 33 32 31 31 31 30 28 27 27 26 26 27 30 30 29 32 34 29 23 23 28 28 25 24 21 22 24 25 28 31 31 28 25 25 24 21 22 22 19 20
39 39 39 39 39 39 39 38 38 39 39 40 40 41 42 43 43 44 44 45 45 46 46 46 47 46 45 45 44 44 41 41 43 37 30 31 31 29 26 25 27 29 33 36 38 37 35 34 32 32 32 31 31 31 30 29 28 27 27 29 31 32 31 32 33 29 23 23 27 26 25 24 24 27 27 25 27 32 32 26 24 26 26 24 23 22 19 20
37 38 38 39 39 40 40 40 40 40 41 41 41 42 42 43 43 44 45 45 46 46 47 47 47 47 46 46 45 44 43 44 45 36 30 33 34 31 27 26 26 27 29 32 36 37 36 34 33 33 32 33 33 33 32 32 30 29 30 31 31 32 31 32 32 28 23 23 27 27 26 27 27 26 24 25 27 31 31 26 26 27 25 25 24 22 22 22
38 38 38 39 40 40 41 41 41 42 42 42 43 43 43 43 44 44 45 46 46 46 47 48 48 48 47 47 45 45 45 45 45 37 33 36 36 33 30 27 27 27 28 29 31 34 35 36 35 34 34 34 34 34 34 33 32 32 32 32 32 32 32 32 31 27 24 25 27 26 26 28 27 22 23 29 28 28 30 27 27 28 26 26 25 24 24 23
39 39 39 40 41 41 42 42 42 42 43 43 44 44 44 44 44 44 45 46 47 47 48 48 48 49 49 49 46 45 46 45 45 39 36 38 37 35 32 28 27 28 28 28 28 30 33 36 37 37 35 34 34 34 34 33 33 33 32 32 32 32 31 32 31 27 26 27 26 24 26 29 27 22 24 30 28 26 30 27 26 29 28 27 26 26 25 24
41 41 41 41 41 42 43 43 43 43 43 44 44 44 45 45 44 44 45 46 47 48 49 49 49 49 50 49 45 45 47 46 45 42 40 40 38 36 34 30 29 29 29 29 28 29 30 33 36 37 37 37 36 35 35 34 32 31 31 31 31 31 31 32 29 27 26 26 25 25 26 29 25 20 23 31 31 27 28 28 27 29 29 27 27 27 25 24
42 42 42 42 42 43 43 43 44 43 43 44 44 45 45 45 45 44 44 45 47 48 49 49 49 50 50 48 44 47 48 45 45 43 42 42 39 38 36 33 31 31 31 30 29 29 29 31 32 35 37 38 37 35 34 33 31 31 31 31 30 30 32 31 28 26 25 25 27 26 25 27 24 19 25 34 32 26 26 29 29 29 29 28 28 28 27 26
43 43 43 43 43 43 43 43 43 43 43 44 44 45 45 45 45 44 44 45 46 48 49 50 49 50 50 47 45 48 48 45 44 44 44 43 41 40 38 36 34 33 32 32 31 30 29 29 30 32 34 34 34 35 36 34 32 31 30 31 30 29 30 30 30 27 24 26 29 26 22 24 22 19 28 34 28 22 24 29 32 30 29 30 30 28 26 25
44 44 44 44 44 44 43 43 43 43 43 43 44 44 45 45 45 45 45 45 46 48 49 50 50 50 50 47 47 50 48 45 44 45 46 45 43 41 40 39 36 35 34 33 33 31 30 30 29 28 29 30 33 37 37 34 32 31 30 30 28 28 26 26 31 28 23 27 29 23 17 19 18 17 27 31 24 22 24 29 32 29 28 30 29 28 25 24
45 45 45 45 44 44 43 43 42 42 43 43 43 44 44 44 44 45 45 45 46 47 48 49 50 50 49 47 47 48 47 45 45 46 46 45 44 43 42 41 38 37 36 35 35 34 32 29 26 26 29 31 34 35 35 33 32 31 30 29 28 28 23 21 29 29 23 26 27 18 15 18 14 15 27 29 24 22 25 30 33 29 26 29 29 28 25 24
46 46 45 45 45 44 43 43 42 42 42 43 43 42 42 42 43 44 45 45 45 46 48 49 49 49 48 47 46 46 46 46 45 46 47 45 45 45 44 42 40 39 38 38 37 34 32 30 29 30 31 32 33 33 32 32 31 30 29 27 26 28 23 18 26 31 24 24 23 13 16 22 16 16 28 31 27 22 24 31 33 29 25 27 29 27 26 26
47 46 46 45 45 44 43 42 42 42 42 42 42 41 40 41 42 43 44 45 45 45 46 47 48 47 47 48 46 46 48 48 48 48 48 46 45 46 45 43 42 42 41 40 38 35 33 33 33 33 32 31 31 30 30 30 29 27 27 26 24 25 22 18 23 32 25 23 19 15 20 23 21 22 28 28 27 22 23 30 31 30 27 28 29 27 28 27
47 46 46 45 44 44 43 42 42 41 42 42 41 39 38 39 41 43 45 45 45 44 45 46 47 47 48 48 46 46 48 49 49 49 48 47 46 47 46 44 45 44 43 42 39 37 36 36 35 33 31 29 29 29 29 30 29 25 23 24 24 21 18 17 20 33 26 22 19 23 28 22 19 25 30 25 26 23 26 30 30 31 30 30 29 28 28 26
47 46 46 45 44 43 43 42 42 41 41 41 39 37 37 39 41 43 44 44 44 44 44 46 47 47 47 48 47 48 50 51 50 48 48 48 46 47 47 45 46 45 44 42 40 39 38 37 35 32 31 29 29 29 29 31 31 25 18 20 23 20 15 16 18 31 26 20 19 28 33 23 18 29 32 23 20 21 26 29 30 32 31 31 30 28 26 24
47 46 45 45 44 43 43 42 42 41 41 40 39 37 37 38 39 40 41 41 41 42 42 45 46 44 46 49 49 50 51 51 49 48 49 49 47 48 47 46 46 46 44 43 42 42 40 38 35 33 32 31 30 29 29 30 33 31 22 18 22 21 18 18 21 26 28 21 19 27 34 25 21 32 33 24 19 19 25 25 27 31 30 31 30 27 26 23
47 46 45 44 44 43 43 42 42 41 40 40 38 38 38 37 36 38 39 39 39 40 41 44 44 41 45 50 50 49 47 46 47 48 50 49 47 48 48 47 46 46 45 44 43 42 41 39 36 34 32 31 31 29 29 30 34 36 31 24 22 21 21 20 22 23 27 23 18 23 32 27 20 32 36 34 28 22 24 25 27 31 30 30 28 27 29 27
47 47 45 44 44 43 43 42 41 41 40 39 38 38 38 36 35 37 39 38 38 39 40 43 43 41 44 49 48 45 43 44 46 48 50 48 46 47 48 47 46 46 46 44 43 42 41 38 36 35 33 32 32 30 30 32 35 37 36 32 25 20 21 18 20 25 23 20 19 20 27 28 24 35 38 38 32 24 23 24 26 29 31 32 30 29 31 30
48 47 45 45 45 44 43 42 41 40 39 39 39 38 37 36 35 36 37 37 37 38 39 42 42 41 44 48 47 43 43 46 47 49 51 48 46 47 47 47 46 46 45 43 44 43 42 40 37 36 35 34 34 33 32 33 36 37 37 36 28 20 18 18 24 31 25 21 19 20 25 27 27 36 34 30 27 23 22 22 26 29 31 33 30 29 29 28
49 48 46 46 45 44 43 42 41 40 39 39 39 38 37 35 35 34 34 36 36 36 39 40 39 40 43 47 46 44 46 47 47 50 51 48 47 47 47 47 46 45 45 43 44 44 43 41 39 37 37 36 35 34 34 34 36 37 36 35 30 23 18 19 28 34 30 27 22 22 25 25 28 33 30 30 28 23 21 22 27 30 31 31 29 27 27 26
50 48 46 46 46 45 43 42 41 40 39 40 39 37 35 34 34 33 33 35 34 34 37 39 39 39 40 44 44 44 46 46 46 50 51 48 47 48 48 48 46 45 45 45 45 46 43 42 42 40 39 38 38 36 35 35 37 37 33 32 33 29 24 19 28 33 32 31 26 26 28 26 29 31 28 34 35 28 26 26 27 28 30 32 31 28 28 27
51 49 46 46 47 45 44 43 41 40 41 40 37 35 34 34 34 32 32 33 32 32 35 37 38 39 40 43 44 43 44 44 44 47 49 47 47 49 48 48 47 45 45 46 46 45 43 43 43 41 41 40 39 38 35 36 37 36 32 32 33 31 29 24 25 30 28 30 30 30 33 31 30 31 29 33 36 32 31 31 30 31 31 31 31 28 27 27
50 50 47 46 46 46 44 42 41 41 40 37 35 34 34 34 34 33 32 31 29 31 35 36 37 38 40 43 44 43 44 42 41 43 46 45 46 47 47 47 47 44 45 46 45 43 42 43 41 38 41 43 39 36 35 37 39 35 30 30 30 33 34 29 26 28 24 25 29 30 33 34 28 28 29 31 34 33 32 31 33 36 34 31 30 27 26 26
47 48 47 46 46 46 44 43 42 40 37 36 34 33 34 34 34 34 33 29 26 28 33 34 34 35 38 42 42 42 43 43 42 43 46 44 43 45 45 46 45 44 44 45 44 39 32 37 41 35 35 41 40 37 37 39 38 35 30 26 29 37 39 33 27 29 28 25 26 25 29 34 30 26 27 29 32 32 30 31 33 36 35 32 31 28 26 25
41 44 45 45 45 45 43 42 42 39 37 37 35 34 33 33 34 33 30 24 21 26 31 30 30 32 36 40 40 39 41 43 43 46 48 44 42 45 46 45 46 45 44 45 47 42 27 26 39 40 34 36 39 39 40 39 34 36 35 24 23 33 40 37 27 29 34 29 24 23 24 31 31 28 27 30 33 32 32 34 33 33 33 32 32 29 25 23
36 39 42 42 42 42 42 42 41 38 36 35 35 34 33 33 34 31 25 21 20 26 27 26 28 30 33 37 36 36 39 41 44 47 47 44 44 48 47 46 47 47 47 48 46 42 32 24 31 39 36 35 42 40 38 39 32 34 39 29 22 28 38 42 33 30 34 25 19 21 23 27 27 27 30 33 34 36 41 41 34 32 32 30 31 30 27 24
33 34 37 39 39 39 40 40 38 34 33 34 33 33 32 33 30 24 23 24 23 22 19 21 27 27 29 33 33 35 38 39 42 46 46 43 43 46 46 46 46 45 46 45 40 36 33 29 27 31 31 34 44 42 37 42 37 35 41 36 27 26 35 46 41 32 30 21 17 19 23 28 28 30 38 38 37 40 45 42 33 30 32 31 31 31 27 25
30 30 33 34 35 36 37 37 35 33 34 34 33 33 32 29 24 22 23 25 22 18 15 17 22 24 26 28 31 36 39 37 38 42 43 42 43 45 46 45 46 45 41 36 37 36 34 34 31 30 33 37 43 43 39 41 38 38 41 34 27 24 29 41 41 32 27 22 22 22 24 32 34 36 41 41 41 43 42 38 30 27 29 29 31 31 27 25
26 28 29 29 31 33 33 33 34 34 34 33 33 32 28 24 24 22 19 22 21 18 15 12 14 20 24 26 29 34 36 35 36 38 40 41 43 44 44 45 45 46 42 32 32 34 33 36 33 30 36 39 39 39 37 34 34 40 42 33 29 28 24 29 34 31 25 22 24 27 30 39 40 39 41 42 43 42 39 33 26 26 28 29 30 31 28 26
24 25 25 26 28 30 31 32 33 33 33 32 30 27 23 24 26 23 15 18 20 19 18 14 12 16 22 25 29 32 33 33 31 32 35 38 41 43 42 43 44 45 45 37 32 32 31 31 29 26 31 35 37 39 38 32 28 37 44 36 30 27 21 21 26 27 26 25 26 29 35 43 43 42 43 45 43 40 37 33 29 28 29 29 31 31 29 26
22 22 23 25 26 28 30 32 32 32 32 29 25 26 30 29 30 27 18 18 21 19 20 20 15 15 19 23 26 29 32 33 28 27 31 33 37 41 42 42 42 43 43 35 28 30 28 22 21 24 26 28 32 37 40 35 25 28 42 40 27 23 23 22 23 25 30 31 27 28 35 41 42 43 44 44 42 38 37 36 34 31 29 30 30 29 28 26
21 21 22 24 25 28 30 31 32 32 30 28 30 34 37 34 30 29 22 18 20 20 20 22 21 18 17 19 21 25 32 35 30 27 30 29 29 34 41 42 41 41 41 34 24 24 25 19 17 24 26 23 25 31 39 38 26 23 33 36 31 28 28 29 27 25 30 32 28 28 34 37 39 42 43 41 40 37 36 36 36 33 31 31 30 28 27 26
20 20 21 23 26 29 32 33 33 32 31 35 39 38 37 32 28 29 28 21 20 21 22 22 25 26 21 18 18 21 30 33 28 26 28 26 23 27 33 37 39 39 39 35 26 21 23 23 19 23 25 21 22 32 43 41 32 25 26 32 35 31 26 30 31 24 24 28 28 29 33 35 36 40 40 40 38 36 34 33 32 33 33 32 31 28 27 26
18 18 21 24 28 31 33 35 34 33 35 41 42 37 32 30 26 28 30 25 21 22 23 24 27 29 27 23 19 18 25 29 24 23 24 21 19 24 25 27 33 37 35 31 26 22 24 28 24 21 23 24 25 32 43 46 38 30 26 27 33 32 26 28 30 25 21 22 26 29 31 33 36 38 39 39 39 37 34 31 30 31 33 33 32 29 27 26
16 18 20 24 29 31 33 35 34 36 41 44 42 34 27 26 26 28 30 28 24 24 24 27 30 30 31 31 26 20 21 25 23 21 21 21 21 22 23 24 27 32 34 30 25 24 25 29 29 24 24 29 27 27 36 43 36 27 24 24 26 30 29 28 30 28 23 21 23 25 28 33 37 36 36 37 37 37 35 32 31 32 34 34 32 29 27 27
18 22 22 24 28 31 32 33 35 41 47 44 39 30 23 21 23 27 31 30 28 26 24 28 32 33 34 34 32 27 21 21 22 21 20 23 25 22 21 24 23 25 31 30 25 25 25 29 34 30 25 25 22 20 28 36 32 24 26 27 25 28 31 31 30 29 26 22 20 22 27 34 38 38 37 35 35 37 35 33 34 35 35 34 31 30 29 28
21 24 22 23 26 29 31 34 39 44 47 42 35 27 21 19 21 25 30 31 28 25 24 28 32 34 34 34 33 31 24 19 20 21 20 21 23 23 21 23 22 22 27 28 26 28 28 30 34 31 23 18 16 17 22 29 32 29 29 29 26 27 30 28 25 26 28 25 20 22 29 33 35 37 38 35 33 34 33 32 34 35 33 33 32 31 30 30
21 18 20 22 25 29 33 36 40 44 44 40 34 26 20 19 20 24 29 30 27 26 28 29 31 33 35 36 35 31 29 27 23 20 20 19 22 25 24 24 23 22 24 26 29 31 30 31 34 32 25 21 21 23 23 26 34 33 27 28 28 27 29 29 26 26 29 27 22 23 29 32 31 32 35 33 28 26 27 28 30 31 30 31 32 31 31 30
21 18 20 21 23 29 34 37 41 42 40 36 31 26 21 18 20 24 29 32 31 32 33 30 30 34 35 35 34 31 32 36 30 21 19 21 24 29 29 27 24 22 22 25 30 31 29 29 34 34 32 30 29 30 27 28 34 31 25 30 31 28 31 34 32 30 29 27 25 26 30 31 30 31 33 32 27 24 24 25 28 30 31 31 32 32 31 30
22 19 18 20 24 30 34 35 38 38 35 32 29 24 19 17 20 24 28 32 35 37 37 32 30 35 36 34 34 33 32 35 34 25 20 24 28 30 30 31 28 23 22 28 33 34 32 32 34 35 33 30 26 23 21 22 29 31 28 30 29 27 32 33 31 33 31 25 25 28 29 29 31 34 32 28 25 26 26 26 29 32 32 32 32 32 31 29
22 17 18 21 25 31 32 33 36 34 31 31 26 19 17 19 22 25 26 30 36 40 41 36 32 35 36 33 32 32 32 35 36 29 21 27 30 29 29 31 30 26 29 34 34 35 36 35 34 34 31 27 22 21 22 22 26 30 30 29 26 26 32 32 29 33 31 26 27 30 29 29 30 31 29 24 22 23 25 26 29 32 32 33 33 32 31 28
20 19 22 25 27 29 29 30 33 31 29 29 23 18 20 22 22 22 24 29 33 37 39 35 31 32 34 33 31 30 31 34 36 30 24 28 30 30 31 31 29 28 32 36 36 35 36 36 36 35 33 30 28 27 28 26 25 27 28 28 27 27 32 35 32 31 29 28 30 30 30 32 32 29 28 25 22 22 25 26 28 30 32 33 32 31 29 28
21 22 24 25 27 28 25 25 29 29 28 26 22 21 24 22 20 19 22 26 28 30 34 33 31 33 32 32 32 30 30 33 34 29 25 28 29 30 32 31 30 30 31 33 33 32 32 36 39 38 34 32 32 31 30 28 28 27 27 29 30 28 28 33 35 32 31 32 35 34 33 34 35 34 30 25 21 21 24 26 26 27 29 30 30 29 28 28
21 23 23 24 26 25 22 24 27 27 26 24 20 21 22 21 20 18 20 24 24 26 30 31 32 35 33 33 34 33 32 32 32 29 27 28 28 29 31 31 31 31 31 30 30 30 32 34 37 38 36 33 32 33 31 29 31 30 26 28 31 28 26 30 34 35 36 36 37 38 37 34 33 34 31 27 22 19 21 23 25 26 27 28 28 28 28 29
22 25 26 25 23 21 22 25 26 24 24 22 19 20 20 19 18 17 18 22 22 25 29 30 31 33 33 33 34 34 32 29 28 30 29 27 27 27 28 29 30 31 32 32 32 32 34 34 34 37 37 34 33 34 31 30 32 31 26 27 31 30 30 34 37 37 38 37 36 35 36 34 29 25 25 26 24 21 21 23 24 25 26 26 27 28 28 29
25 28 28 25 22 21 23 24 23 21 22 20 19 19 19 16 16 16 18 20 22 25 29 30 29 28 29 30 32 34 34 30 29 30 28 25 27 27 25 27 29 30 33 34 35 34 35 36 36 36 35 33 34 35 32 31 34 34 31 33 36 37 38 38 39 40 40 41 40 37 34 32 27 21 19 22 24 24 24 24 24 24 25 25 27 28 29 31
Wind_Direction
267 265 264 263 262 261 260 259 258 257 256 256 255 254 253 250 248 247 245 245 245 245 245 245 244 245 245 246 246 245 246 245 245 244 240 239 237 234 234 234 234 234 233 233 233 233 232 231 230 229 229 229 229 230 228 228 229 230 231 229 227 226 222 219 230 232 214 228 242 243 243 244 243 233 230 227 221 231 237 233 235 238 241 240 235 233 231 229
267 266 264 263 262 261 260 259 258 258 256 256 255 254 253 251 249 247 245 244 243 244 244 244 243 243 243 244 244 244 244 244 244 243 241 240 237 233 233 233 232 232 232 231 231 231 231 229 229 227 227 227 226 228 226 225 227 227 229 225 223 220 208 209 225 219 214 225 237 244 245 242 239 232 231 229 228 236 236 234 239 243 244 243 238 232 231 229
268 266 265 263 262 261 261 260 259 258 257 256 255 254 254 252 250 248 246 244 242 242 242 243 242 241 241 242 242 243 242 242 242 240 240 241 238 234 232 232 231 231 230 230 230 229 229 228 227 227 226 226 225 227 224 223 225 224 225 222 219 213 197 210 226 221 223 230 239 247 246 233 235 232 228 227 227 237 241 237 240 245 246 244 241 233 229 228
268 267 265 264 263 262 261 260 259 259 258 257 256 254 253 252 250 248 246 244 242 240 240 241 241 240 239 240 240 241 241 241 239 238 238 240 239 235 232 231 230 230 229 228 228 228 228 227 226 226 226 225 224 225 224 221 222 222 223 220 214 207 202 215 227 228 231 236 242 250 250 236 239 238 231 228 230 240 247 244 239 242 245 244 243 238 232 229
266 266 265 264 263 263 262 261 260 259 258 257 256 255 253 252 251 249 246 244 242 240 239 239 239 239 238 238 238 238 240 239 238 236 235 238 240 237 233 230 229 228 228 227 226 226 226 226 225 225 226 226 224 225 224 220 220 220 219 216 212 211 213 221 230 234 235 239 245 247 240 233 234 236 234 232 232 237 243 244 238 237 242 243 242 242 238 233
264 265 265 265 264 264 263 262 261 260 259 257 256 255 254 252 250 249 247 245 242 240 239 237 237 238 237 237 236 237 237 239 239 235 234 238 239 237 233 230 229 228 228 226 226 225 225 225 224 225 225 226 226 225 224 220 219 220 217 214 220 223 223 229 236 237 236 240 241 233 229 231 231 231 229 224 227 231 236 241 237 232 238 239 238 242 241 235
263 263 264 264 265 265 264 264 263 262 260 258 257 255 254 252 251 249 248 245 243 241 239 237 236 236 236 236 235 235 235 238 240 234 231 235 236 235 231 229 228 227 227 226 225 224 225 225 224 224 224 225 226 225 225 223 220 219 217 216 224 230 229 234 239 238 237 237 238 234 233 237 237 236 229 223 227 231 236 240 238 235 237 236 234 238 240 234
262 262 263 263 265 265 265 265 265 264 263 261 258 256 254 252 251 249 247 245 243 241 239 237 236 234 234 234 234 234 233 237 239 231 226 231 233 231 227 225 226 226 226 225 224 224 223 223 223 223 224 225 225 225 224 224 222 220 220 221 225 229 228 234 240 238 233 232 239 239 238 237 231 229 225 224 232 236 238 239 239 239 238 238 236 236 237 232
263 262 262 263 264 264 265 265 265 265 264 262 260 257 254 252 250 249 247 245 243 241 239 237 236 235 233 233 232 232 232 234 236 229 224 230 232 231 224 221 223 223 224 224 223 223 222 222 222 223 223 224 224 224 223 223 223 220 221 223 227 230 229 234 239 238 232 229 235 237 235 231 225 227 227 225 232 238 238 235 235 239 239 241 241 238 234 228
264 263 263 263 264 264 264 264 264 263 263 262 260 258 255 252 250 248 247 245 243 241 240 237 235 234 233 232 231 231 230 232 235 230 223 228 230 229 224 218 220 221 222 223 222 222 222 222 222 222 222 223 223 222 221 221 221 220 221 223 226 230 231 234 239 239 235 233 233 233 232 231 228 229 231 232 232 238 240 234 235 241 240 239 238 235 232 229
265 265 265 265 265 265 264 264 263 262 261 260 258 257 255 252 249 247 245 244 243 241 240 237 235 234 233 231 229 230 229 230 234 229 222 227 228 228 225 218 218 220 221 221 221 221 221 221 221 221 222 223 224 224 223 221 222 222 223 226 227 230 232 234 238 237 234 235 235 233 233 233 231 223 226 234 233 237 242 236 238 242 241 241 239 234 232 233
266 266 266 266 266 266 265 264 263 261 260 258 256 255 253 252 249 247 245 243 242 241 239 237 235 233 232 231 228 229 229 228 232 229 223 226 228 227 225 219 217 219 220 220 219 219 219 220 220 221 221 222 224 226 226 224 225 225 226 228 230 232 235 236 238 238 235 236 236 234 235 235 230 218 225 237 232 232 240 236 234 239 240 242 243 239 235 236
267 266 266 266 266 266 265 264 263 261 259 257 255 254 252 251 248 246 244 242 240 239 239 237 235 234 232 230 228 229 229 227 228 228 225 225 226 227 225 220 217 218 220 219 217 217 217 218 219 220 220 221 222 224 226 225 226 229 228 229 232 234 236 238 237 238 238 239 237 233 234 238 231 215 222 238 234 229 238 238 231 232 236 239 242 242 238 235
267 266 266 266 266 265 264 263 262 261 259 257 254 253 251 249 248 245 243 241 239 238 238 237 235 234 232 229 228 229 228 226 225 225 226 225 224 225 224 221 218 218 219 219 218 217 216 217 218 219 221 222 222 224 225 225 225 228 229 229 232 233 235 238 237 237 239 239 238 233 231 239 235 211 218 236 237 230 238 244 238 233 233 234 236 238 236 233
266 266 266 266 265 264 263 262 261 259 258 256 254 252 250 249 247 245 242 240 238 237 236 236 235 234 232 228 227 229 227 225 225 224 225 225 223 223 223 222 219 218 219 220 220 218 218 219 218 219 221 223 224 225 225 224 223 225 229 229 230 234 238 240 236 234 238 239 240 235 229 238 235 213 223 238 240 238 242 246 244 239 236 237 237 238 239 237
264 264 265 265 264 263 261 260 259 257 256 255 253 251 249 248 246 244 242 240 238 237 235 235 235 233 232 228 226 228 227 224 224 224 224 223 223 223 222 222 219 218 219 220 221 220 218 220 220 219 220 220 223 225 226 225 225 226 229 230 231 233 237 244 239 230 233 241 241 237 227 228 228 222 233 239 236 239 243 242 242 241 241 243 244 245 245 245
264 263 263 263 262 261 260 258 256 255 254 253 252 250 249 247 246 244 242 239 238 236 235 234 233 233 232 230 228 228 227 225 224 224 223 222 222 222 222 221 220 219 218 219 221 220 220 221 220 219 218 218 220 223 224 224 224 226 228 230 231 231 229 238 243 233 228 241 242 236 216 202 210 243 247 240 232 239 242 239 241 240 240 246 247 248 249 248
263 262 261 261 260 259 257 256 254 253 252 251 251 250 249 247 245 243 241 239 237 236 235 233 232 232 231 229 228 227 226 225 224 224 223 222 221 222 222 220 220 220 218 219 221 220 220 220 218 218 217 217 219 221 221 220 222 226 229 230 231 234 228 222 244 243 231 241 243 224 201 186 184 234 246 244 239 241 241 237 241 241 238 246 247 247 249 248
262 261 260 259 258 256 255 253 251 250 250 249 249 249 248 247 244 243 240 238 237 236 235 234 232 231 230 229 226 225 224 223 222 222 222 221 220 221 221 219 220 220 219 219 220 219 218 218 219 220 220 219 220 220 219 218 221 225 230 231 230 236 230 207 238 249 237 244 239 181 177 178 172 207 230 243 244 240 236 231 236 242 241 243 245 247 249 250
262 260 258 256 255 254 252 251 249 248 247 247 247 247 247 246 243 241 239 237 235 234 233 232 230 228 229 228 225 225 224 223 223 222 221 220 219 220 220 218 220 220 219 219 219 219 218 219 221 223 224 222 222 220 217 216 217 219 225 230 224 228 229 196 228 256 247 247 232 167 168 170 168 212 227 238 244 238 235 231 231 239 239 240 244 247 250 255
260 258 256 254 252 251 250 248 247 246 245 245 245 245 246 245 243 241 239 237 235 233 232 232 229 226 227 227 224 223 223 222 222 221 222 220 218 220 219 217 219 219 220 219 219 219 219 221 222 222 222 222 223 221 217 215 215 210 212 234 225 210 215 192 219 261 259 244 220 169 169 170 175 221 230 227 234 235 235 233 231 236 238 240 242 246 254 254
257 255 253 252 249 248 247 246 245 244 243 243 242 242 244 245 244 242 240 237 236 234 233 233 230 226 226 227 224 223 222 221 220 220 221 219 217 219 218 217 219 219 219 219 220 220 220 222 221 221 221 221 222 222 218 215 217 210 196 223 228 200 201 192 197 248 261 245 218 180 178 177 190 223 230 226 225 235 239 237 235 237 240 241 242 245 250 244
254 252 250 249 247 245 245 244 243 242 241 241 240 240 242 244 243 241 239 236 233 232 232 233 231 225 226 228 225 224 223 223 223 221 222 220 218 219 219 217 217 219 218 219 220 220 222 222 220 220 220 221 222 221 219 214 218 216 199 202 215 202 203 193 186 227 253 240 210 193 191 181 199 230 238 242 239 238 242 238 238 239 238 240 241 242 243 241
250 248 247 246 244 243 242 241 241 240 239 239 238 239 241 242 242 240 239 235 232 231 230 232 230 224 225 228 226 223 222 222 222 223 222 220 218 219 220 217 217 218 218 218 220 222 223 222 221 221 220 222 222 219 217 215 218 219 210 204 200 200 205 191 192 211 224 218 191 192 196 179 202 231 238 246 243 235 236 232 236 241 237 237 239 240 242 242
247 245 243 242 241 240 239 239 239 238 237 237 237 239 240 240 240 240 239 236 232 230 229 231 230 224 223 226 224 220 219 219 219 222 222 219 218 219 220 218 216 218 218 217 219 221 222 221 220 221 220 221 222 221 217 216 220 219 218 214 195 189 202 194 208 213 212 223 206 194 196 185 206 229 231 238 239 234 235 233 237 240 237 238 240 242 246 247
245 241 239 239 238 237 237 236 236 236 236 236 235 237 238 238 239 239 239 237 233 229 229 230 229 225 223 226 223 219 219 218 218 221 220 217 217 218 219 219 216 217 218 217 219 221 222 222 219 219 220 220 219 221 217 216 221 219 219 220 202 185 187 201 224 227 226 238 230 204 199 196 213 227 227 232 241 241 235 233 238 240 239 241 242 243 248 248
242 238 236 236 235 234 234 234 234 233 233 233 233 234 236 235 236 236 237 238 235 231 230 229 227 224 222 225 224 219 220 219 217 220 220 216 216 217 217 218 216 216 217 217 219 220 221 222 221 218 219 220 219 219 219 216 219 222 216 215 214 197 173 194 234 240 236 239 237 213 199 203 223 236 238 239 243 242 236 233 234 239 242 243 245 243 246 249
238 236 233 233 233 231 231 232 231 230 231 232 232 232 233 232 232 233 234 237 236 232 230 229 227 222 218 221 221 217 220 221 218 222 222 217 217 217 217 218 215 214 217 218 220 221 221 222 223 221 219 221 220 217 219 218 217 221 216 209 218 208 176 183 228 244 242 235 232 217 198 199 223 245 251 245 243 238 239 239 234 240 245 245 247 244 244 250
235 234 231 230 229 228 229 230 229 229 230 231 231 230 230 229 228 229 230 233 233 232 230 227 225 222 218 220 218 214 216 218 217 222 223 219 217 218 217 218 217 214 216 218 219 222 223 223 224 225 222 221 223 219 217 221 218 214 213 208 210 208 190 182 208 232 237 225 221 215 204 200 213 239 244 240 241 238 238 240 237 242 246 245 244 240 237 239
232 232 230 227 226 226 227 228 227 227 227 227 228 227 228 228 226 226 228 227 228 233 232 228 225 221 219 219 218 215 214 214 214 217 220 218 216 218 217 218 218 214 215 217 217 217 223 227 223 222 223 218 219 221 217 221 220 208 206 207 206 205 197 186 195 217 224 221 216 208 208 209 206 219 233 237 241 241 239 240 241 243 243 242 241 234 229 226
228 229 228 225 223 223 224 225 225 224 224 224 223 222 223 224 223 224 224 217 220 233 233 229 225 221 219 218 216 215 215 214 214 216 218 215 212 215 215 215 216 213 213 216 215 212 212 224 222 219 224 217 213 219 219 220 220 208 202 202 209 209 199 190 192 212 220 225 221 203 206 219 211 206 226 244 246 245 243 239 238 241 240 240 241 238 234 231
226 227 227 223 221 221 221 222 221 221 222 222 222 221 219 220 220 219 211 196 206 228 232 231 226 220 220 217 212 212 215 214 214 218 219 214 212 213 212 213 215 213 213 214 215 212 207 214 222 221 224 222 216 216 219 220 215 206 202 195 203 212 203 196 195 208 216 219 217 203 201 220 220 205 215 237 245 244 243 238 235 237 239 239 240 243 248 247
223 225 226 223 220 218 217 218 217 216 217 217 219 218 216 218 215 207 198 189 199 220 225 229 226 217 217 216 208 207 212 214 216 219 220 215 215 215 212 211 213 215 217 214 211 210 209 210 216 217 216 219 219 214 215 221 213 203 202 194 192 207 207 203 199 204 212 208 206 204 203 216 222 214 214 224 234 238 241 241 239 235 235 236 237 242 250 250
216 221 223 221 219 216 213 214 212 210 212 211 213 213 212 210 196 188 196 192 192 207 215 226 224 213 213 211 205 206 209 209 214 221 220 215 215 217 213 211 211 212 214 214 212 211 212 211 209 213 215 217 220 213 210 218 214 203 201 195 194 205 210 207 202 203 212 209 198 198 209 219 223 224 221 221 226 234 241 245 244 240 237 238 238 242 247 245
210 220 219 218 217 213 208 207 206 207 208 206 208 207 202 192 175 169 188 191 184 191 203 223 221 205 205 202 198 205 207 204 208 218 221 216 215 217 214 212 212 210 206 207 213 213 215 217 212 217 224 223 224 215 203 209 215 206 198 197 204 205 208 213 207 204 213 211 193 190 207 219 223 229 230 227 227 231 239 242 241 238 237 237 239 242 243 240
207 216 214 213 212 207 202 201 201 202 203 203 202 193 174 165 160 154 167 186 182 180 178 189 206 197 195 195 195 199 201 198 201 213 221 217 215 217 215 212 213 212 206 204 211 212 214 218 216 221 229 228 224 216 203 199 208 208 200 199 209 206 199 214 216 209 211 212 201 198 209 216 221 228 231 233 232 232 236 237 235 235 233 232 235 238 239 235
205 210 209 208 204 200 197 195 194 195 198 193 180 164 153 152 154 152 159 177 182 182 173 174 188 191 188 187 190 195 192 187 191 204 216 216 213 215 215 212 212 213 207 202 211 217 212 210 210 212 217 222 220 212 204 199 201 210 205 200 204 209 200 206 219 213 209 211 207 208 216 218 222 228 231 234 235 234 236 235 235 237 233 228 230 233 234 232
207 210 206 201 195 193 191 188 188 190 185 169 157 155 151 152 158 155 156 169 176 180 179 176 173 173 183 184 184 194 189 184 191 203 211 216 213 212 214 210 209 211 206 197 201 216 210 198 203 209 208 216 216 199 194 201 203 206 210 202 195 203 204 203 212 215 212 212 209 213 224 226 228 233 235 237 238 239 240 239 239 239 235 231 229 229 230 229
209 209 201 192 187 187 184 181 182 180 168 154 152 153 150 155 164 159 156 164 170 174 183 184 171 164 172 178 181 194 189 186 196 203 207 214 213 211 214 209 205 207 204 196 194 204 201 188 198 220 215 209 210 195 190 200 201 190 202 207 199 201 204 203 209 214 214 214 211 215 227 232 235 240 239 239 240 242 243 244 243 240 236 233 229 227 227 226
208 201 189 183 181 182 180 178 176 168 157 152 150 149 152 161 167 162 161 166 172 176 176 177 174 165 161 165 176 195 191 187 195 200 198 200 203 211 215 209 205 204 199 195 198 203 195 184 191 213 210 201 212 211 202 203 201 190 194 206 206 204 200 202 211 215 214 216 214 217 227 232 235 239 238 238 240 240 239 240 241 238 234 231 226 223 223 222
195 178 174 179 179 179 179 175 167 156 152 152 150 148 154 164 169 172 171 170 178 183 172 172 176 168 160 163 169 182 193 193 194 196 193 184 187 203 210 204 203 202 194 188 196 206 197 185 184 190 199 203 214 221 210 204 203 203 203 201 203 203 195 198 212 215 213 217 217 217 226 235 237 236 236 237 237 236 234 234 233 231 230 229 225 221 221 222
170 160 170 183 179 175 175 168 157 153 154 153 151 150 155 164 175 182 177 173 182 187 174 172 175 170 166 165 164 167 182 195 192 191 194 188 186 193 198 195 195 200 198 190 191 202 197 187 186 189 200 209 214 220 213 207 205 211 214 206 200 202 198 195 203 212 216 217 217 217 225 235 239 238 240 239 236 234 232 231 228 225 227 228 225 221 220 222
152 156 172 183 177 171 168 161 155 155 158 157 155 158 164 168 178 186 181 176 182 187 178 172 174 172 168 165 164 164 169 187 194 194 197 195 193 193 189 187 186 192 198 194 193 200 197 191 191 194 199 202 206 214 215 209 200 202 215 212 201 205 209 203 199 208 216 214 213 221 226 232 236 237 241 243 239 234 230 227 224 222 224 224 221 220 220 223
138 151 171 177 174 170 164 159 158 158 162 163 162 164 168 171 176 184 184 178 180 189 187 178 177 178 172 168 171 168 165 176 190 200 202 197 198 195 181 175 184 193 196 191 194 201 201 197 196 196 195 192 191 199 209 208 194 192 209 213 201 201 213 219 213 208 213 213 209 218 226 231 234 236 240 242 239 232 227 224 221 218 218 219 218 218 221 225
137 151 168 173 172 169 163 161 161 162 165 168 166 165 167 173 178 182 184 182 184 189 189 181 177 181 177 172 176 177 171 174 179 189 203 201 196 191 177 172 184 198 197 186 189 202 207 203 202 201 201 202 198 195 202 205 195 191 205 211 209 206 205 213 216 209 212 217 212 216 224 227 230 236 240 240 236 233 231 225 219 214 213 214 215 218 223 228
144 151 165 170 167 166 165 163 162 162 167 170 168 167 167 175 183 185 186 186 187 188 189 184 179 181 181 177 179 180 175 174 171 171 199 209 197 188 182 180 182 187 191 187 190 202 209 206 205 205 206 210 209 200 198 203 203 202 203 207 215 212 196 202 216 213 212 218 218 220 224 224 229 236 242 246 241 237 233 223 215 211 209 211 214 219 225 230
147 149 158 163 163 165 164 163 162 165 170 171 168 165 167 175 185 189 191 191 190 190 191 189 181 180 183 181 180 178 176 176 169 164 190 208 198 190 189 189 189 190 192 190 193 201 204 202 202 203 203 204 204 199 195 200 210 211 205 204 215 212 194 195 215 217 212 217 223 225 224 225 230 235 240 245 243 234 229 220 211 208 209 212 216 221 226 231
144 145 151 155 159 162 160 161 165 168 171 172 168 164 168 177 188 195 197 196 194 193 194 192 185 183 184 183 183 181 178 178 172 168 189 204 198 193 194 195 199 201 196 194 198 202 201 198 198 200 202 200 201 200 197 199 206 210 211 207 210 216 204 196 206 217 216 219 225 227 227 229 232 235 235 236 236 230 224 220 213 209 210 214 219 223 227 231
142 144 148 150 152 155 155 162 168 167 169 172 170 169 172 178 187 194 198 199 197 196 197 196 192 190 188 186 187 185 181 181 181 180 191 201 198 196 197 199 203 203 200 201 205 205 201 200 201 202 204 204 203 202 201 200 196 199 211 211 203 210 212 201 203 212 216 222 228 229 230 232 234 234 231 226 224 218 213 212 210 207 209 214 219 223 227 231
144 143 143 146 149 150 151 159 165 165 167 170 172 175 176 176 180 186 192 194 195 196 196 196 195 194 193 192 191 187 182 183 187 191 195 198 199 199 200 204 207 206 204 205 207 207 205 206 206 206 207 208 207 206 205 203 198 195 204 209 203 203 209 208 208 211 213 219 225 226 229 232 233 234 231 222 216 211 208 209 209 208 211 215 219 223 227 232
144 140 140 145 148 146 146 155 161 163 166 168 169 174 175 174 176 177 179 183 186 188 188 187 188 192 196 198 195 191 188 186 189 195 198 200 202 203 203 206 210 210 208 206 208 209 209 211 212 209 208 209 209 211 209 204 203 201 197 201 204 201 201 208 214 214 213 218 220 221 224 226 228 234 232 223 218 217 215 213 212 212 214 216 220 224 228 233
143 141 142 145 144 143 147 155 158 160 164 164 161 165 166 165 166 165 169 178 182 182 181 181 185 189 194 197 197 197 196 191 189 192 195 203 209 209 207 206 208 211 209 208 211 210 209 212 213 211 211 210 210 211 210 204 205 205 199 198 202 200 198 203 210 212 213 216 219 219 219 221 227 234 228 215 212 215 216 215 215 217 219 221 225 227 230 233
Height
5718 5718 5718 5719 5719 5719 5720 5721 5721 5722 5723 5724 5725 5726 5728 5730 5731 5733 5735 5737 5739 5741 5743 5745 5747 5749 5751 5752 5754 5755 5757 5758 5759 5761 5763 5764 5767 5771 5773 5775 5778 5781 5784 5786 5788 5790 5793 5795 5796 5798 5800 5801 5803 5805 5807 5809 5810 5812 5814 5816 5819 5822 5824 5827 5829 5830 5832 5829 5823 5822 5829 5836 5838 5839 5839 5841 5841 5839 5841 5842 5842 5843 5844 5846 5847 5849 5850 5851
5714 5714 5714 5714 5714 5715 5715 5716 5717 5717 5718 5719 5720 5722 5723 5725 5726 5728 5730 5732 5734 5737 5739 5741 5743 5745 5747 5749 5750 5752 5754 5755 5756 5759 5760 5761 5764 5767 5769 5772 5775 5777 5780 5782 5785 5787 5790 5792 5793 5795 5797 5799 5800 5802 5804 5806 5808 5809 5811 5814 5817 5819 5822 5825 5825 5824 5825 5821 5818 5821 5831 5836 5836 5837 5837 5839 5840 5838 5839 5842 5842 5841 5843 5844 5846 5848 5849 5849
5709 5709 5709 5709 5710 5710 5711 5711 5712 5713 5713 5715 5716 5717 5719 5720 5722 5723 5725 5727 5730 5732 5734 5736 5739 5741 5743 5745 5747 5749 5750 5752 5754 5756 5757 5758 5760 5763 5766 5768 5771 5774 5777 5779 5782 5784 5786 5789 5791 5793 5794 5796 5798 5799 5801 5804 5805 5807 5809 5811 5814 5817 5820 5821 5818 5817 5819 5818 5818 5823 5832 5835 5834 5834 5835 5837 5839 5836 5837 5841 5841 5840 5841 5843 5846 5847 5847 5848
5704 5704 5704 5704 5705 5705 5706 5706 5707 5708 5709 5710 5711 5712 5714 5715 5717 5719 5721 5723 5725 5727 5729 5732 5734 5737 5739 5741 5743 5746 5747 5749 5751 5752 5754 5755 5757 5759 5762 5765 5768 5771 5773 5776 5779 5781 5783 5786 5788 5790 5791 5793 5795 5796 5799 5801 5803 5805 5807 5809 5812 5814 5815 5813 5811 5814 5817 5818 5820 5826 5832 5834 5831 5831 5834 5836 5837 5836 5835 5837 5839 5838 5839 5841 5844 5846 5846 5847
5700 5700 5700 5700 5700 5700 5701 5701 5702 5703 5704 5705 5706 5708 5709 5710 5712 5714 5716 5718 5720 5722 5724 5727 5730 5732 5735 5737 5740 5742 5744 5745 5746 5749 5752 5753 5754 5757 5759 5762 5765 5767 5770 5773 5775 5778 5780 5783 5785 5787 5789 5790 5792 5794 5796 5799 5800 5802 5805 5807 5808 5808 5808 5808 5809 5813 5815 5818 5821 5827 5830 5828 5827 5830 5834 5836 5836 5835 5832 5832 5835 5836 5837 5839 5842 5843 5844 5845
5695 5695 5695 5695 5695 5696 5696 5696 5697 5698 5699 5700 5701 5703 5704 5706 5707 5709 5711 5713 5715 5717 5720 5722 5725 5728 5730 5733 5735 5738 5740 5741 5743 5748 5751 5750 5752 5754 5757 5759 5761 5764 5766 5769 5772 5775 5777 5780 5782 5784 5786 5788 5790 5792 5794 5796 5798 5800 5803 5804 5804 5804 5806 5807 5808 5810 5814 5818 5820 5823 5824 5822 5826 5830 5833 5834 5832 5830 5830 5829 5831 5835 5836 5838 5840 5841 5842 5844
5689 5690 5690 5690 5690 5691 5691 5692 5692 5693 5694 5695 5696 5698 5699 5701 5702 5704 5706 5708 5711 5713 5715 5717 5720 5723 5726 5728 5731 5734 5736 5737 5740 5746 5748 5748 5749 5752 5754 5756 5758 5760 5763 5766 5769 5772 5775 5777 5779 5781 5784 5785 5787 5789 5791 5794 5796 5798 5800 5801 5802 5803 5806 5806 5805 5808 5814 5817 5817 5819 5821 5823 5828 5830 5831 5831 5828 5826 5828 5828 5830 5833 5834 5835 5838 5838 5840 5842
5683 5684 5685 5685 5685 5686 5686 5687 5687 5688 5689 5690 5691 5693 5694 5696 5698 5700 5701 5703 5706 5708 5710 5713 5715 5718 5721 5724 5727 5729 5734 5736 5736 5741 5744 5745 5747 5749 5752 5753 5755 5757 5760 5763 5766 5769 5771 5774 5776 5779 5781 5783 5784 5787 5789 5791 5793 5796 5797 5798 5799 5800 5803 5803 5803 5807 5812 5815 5815 5817 5820 5823 5826 5826 5827 5828 5826 5824 5826 5828 5830 5831 5832 5833 5835 5836 5838 5839
5678 5678 5679 5680 5680 5680 5681 5682 5682 5683 5684 5685 5686 5687 5689 5691 5692 5694 5696 5698 5700 5703 5705 5708 5711 5713 5716 5719 5722 5726 5731 5731 5730 5737 5743 5743 5744 5746 5749 5751 5752 5754 5756 5759 5762 5765 5768 5771 5774 5776 5778 5780 5782 5784 5786 5788 5791 5793 5794 5795 5796 5798 5800 5801 5801 5805 5810 5812 5813 5815 5818 5820 5822 5822 5824 5826 5825 5822 5824 5828 5829 5829 5831 5832 5833 5835 5836 5837
5672 5673 5673 5674 5674 5675 5675 5676 5677 5677 5678 5679 5680 5682 5683 5685 5687 5689 5691 5693 5695 5698 5700 5703 5706 5709 5712 5714 5718 5722 5726 5727 5726 5735 5741 5740 5741 5743 5746 5749 5750 5752 5754 5756 5758 5762 5765 5768 5771 5773 5775 5776 5778 5780 5782 5785 5787 5790 5791 5792 5794 5795 5797 5799 5800 5804 5808 5809 5810 5813 5815 5817 5818 5821 5824 5823 5823 5821 5822 5827 5828 5828 5830 5831 5832 5834 5834 5835
5666 5667 5667 5668 5668 5669 5669 5670 5671 5671 5672 5673 5674 5676 5677 5679 5681 5683 5685 5688 5690 5692 5694 5698 5701 5704 5707 5710 5714 5718 5721 5723 5724 5731 5737 5736 5738 5740 5743 5746 5748 5749 5751 5753 5756 5759 5762 5765 5767 5769 5771 5773 5775 5777 5779 5782 5785 5786 5788 5790 5792 5793 5795 5797 5798 5802 5805 5806 5808 5811 5812 5813 5816 5820 5821 5819 5820 5821 5820 5823 5826 5826 5828 5828 5830 5832 5833 5834
5660 5661 5661 5661 5662 5663 5663 5664 5665 5665 5666 5667 5668 5670 5671 5673 5675 5677 5680 5682 5684 5686 5689 5692 5695 5699 5702 5705 5711 5714 5716 5719 5721 5728 5733 5733 5735 5737 5741 5744 5746 5747 5749 5751 5753 5756 5758 5761 5763 5765 5768 5771 5773 5775 5778 5780 5782 5784 5786 5788 5789 5791 5793 5795 5797 5800 5802 5804 5806 5809 5810 5810 5814 5818 5819 5816 5819 5820 5818 5821 5824 5824 5825 5826 5828 5829 5831 5833
5654 5654 5655 5655 5656 5656 5657 5657 5658 5659 5660 5661 5662 5664 5665 5667 5669 5672 5674 5676 5679 5681 5683 5686 5690 5694 5697 5702 5708 5709 5710 5715 5718 5724 5728 5729 5732 5735 5738 5741 5743 5744 5746 5748 5751 5753 5755 5757 5760 5762 5765 5767 5769 5772 5775 5778 5780 5782 5784 5786 5787 5789 5790 5792 5795 5798 5800 5802 5804 5807 5807 5808 5812 5817 5817 5814 5816 5819 5817 5819 5823 5823 5824 5825 5826 5827 5829 5831
5647 5647 5648 5649 5649 5650 5650 5651 5652 5653 5654 5655 5656 5658 5659 5661 5663 5666 5668 5670 5673 5675 5678 5681 5685 5688 5692 5699 5704 5703 5706 5712 5715 5720 5723 5725 5729 5731 5734 5738 5740 5742 5743 5746 5748 5750 5752 5754 5757 5760 5762 5764 5767 5770 5772 5775 5778 5780 5782 5784 5785 5787 5788 5790 5793 5796 5798 5800 5801 5804 5806 5806 5811 5815 5814 5810 5813 5819 5817 5816 5820 5821 5823 5824 5825 5826 5827 5829
5641 5641 5641 5642 5643 5643 5644 5645 5646 5647 5647 5649 5650 5651 5653 5655 5657 5660 5662 5665 5667 5669 5673 5675 5679 5683 5687 5694 5698 5698 5702 5708 5712 5716 5718 5721 5725 5728 5731 5734 5737 5739 5741 5743 5745 5747 5750 5752 5754 5757 5759 5763 5766 5767 5769 5772 5775 5777 5779 5781 5783 5785 5787 5788 5790 5794 5796 5797 5798 5802 5805 5806 5809 5812 5811 5809 5813 5818 5816 5813 5815 5818 5820 5821 5823 5824 5825 5827
5634 5634 5634 5635 5636 5637 5637 5638 5639 5640 5641 5642 5644 5645 5647 5649 5651 5654 5656 5659 5661 5664 5667 5670 5674 5678 5682 5689 5692 5693 5699 5705 5708 5710 5713 5717 5721 5725 5728 5730 5733 5736 5738 5740 5742 5745 5747 5749 5752 5754 5758 5761 5763 5763 5766 5771 5773 5775 5777 5779 5782 5784 5786 5786 5787 5792 5795 5794 5795 5801 5805 5805 5807 5810 5808 5808 5813 5816 5815 5812 5811 5815 5817 5818 5819 5821 5822 5824
5627 5627 5627 5628 5629 5630 5631 5632 5633 5635 5635 5636 5638 5640 5642 5644 5646 5648 5650 5652 5655 5659 5662 5665 5669 5673 5678 5684 5687 5691 5696 5700 5703 5705 5709 5713 5717 5720 5723 5726 5730 5733 5735 5737 5739 5741 5744 5747 5750 5753 5755 5757 5758 5760 5764 5768 5771 5773 5775 5778 5780 5782 5785 5786 5785 5790 5793 5792 5795 5800 5803 5803 5806 5808 5805 5805 5811 5813 5813 5811 5810 5813 5815 5815 5816 5819 5820 5820
5619 5620 5620 5621 5622 5623 5624 5626 5627 5629 5630 5631 5632 5634 5636 5638 5640 5642 5644 5647 5650 5654 5657 5660 5664 5669 5674 5678 5683 5687 5691 5694 5698 5701 5705 5709 5713 5716 5719 5723 5727 5729 5731 5733 5735 5739 5742 5745 5747 5749 5751 5753 5755 5758 5761 5765 5769 5771 5774 5777 5779 5780 5784 5786 5783 5786 5791 5792 5794 5799 5801 5801 5805 5807 5803 5801 5807 5810 5809 5809 5809 5811 5814 5814 5814 5816 5817 5816
5612 5613 5613 5614 5615 5616 5618 5619 5621 5623 5624 5625 5627 5629 5631 5633 5635 5637 5639 5641 5645 5649 5653 5656 5660 5665 5668 5672 5678 5681 5684 5689 5692 5696 5700 5704 5709 5711 5715 5719 5722 5724 5727 5730 5732 5736 5739 5741 5743 5744 5748 5751 5753 5756 5760 5764 5768 5770 5773 5775 5778 5779 5783 5786 5783 5782 5788 5791 5793 5798 5800 5799 5802 5805 5801 5798 5804 5807 5806 5807 5808 5810 5813 5812 5811 5813 5813 5815
5605 5606 5606 5607 5608 5610 5611 5613 5615 5617 5618 5619 5622 5624 5625 5627 5629 5630 5632 5636 5640 5643 5647 5650 5654 5659 5662 5666 5672 5676 5680 5684 5687 5691 5696 5700 5704 5706 5711 5715 5717 5720 5723 5726 5730 5733 5736 5737 5739 5742 5746 5750 5752 5755 5759 5763 5765 5768 5771 5773 5776 5778 5781 5785 5784 5780 5784 5790 5792 5796 5798 5799 5801 5802 5799 5798 5801 5804 5804 5806 5807 5809 5811 5810 5810 5811 5812 5814
5597 5598 5599 5600 5601 5603 5605 5607 5609 5611 5612 5614 5617 5619 5620 5621 5622 5624 5628 5632 5635 5638 5641 5644 5648 5654 5657 5660 5666 5671 5674 5678 5682 5688 5691 5695 5700 5702 5706 5710 5713 5716 5720 5724 5727 5729 5731 5733 5737 5741 5745 5748 5751 5754 5757 5760 5762 5766 5770 5772 5774 5777 5780 5785 5785 5779 5782 5788 5791 5795 5796 5798 5801 5800 5798 5798 5800 5801 5802 5805 5806 5807 5808 5807 5808 5810 5811 5812
5588 5590 5592 5593 5595 5596 5598 5600 5603 5605 5607 5609 5612 5614 5614 5616 5618 5621 5624 5627 5630 5634 5638 5639 5644 5651 5653 5655 5660 5664 5668 5673 5679 5683 5685 5690 5695 5698 5702 5706 5709 5713 5717 5720 5723 5725 5727 5730 5735 5739 5742 5746 5748 5751 5755 5758 5760 5762 5767 5771 5773 5776 5779 5784 5786 5781 5780 5784 5789 5793 5794 5797 5801 5799 5796 5797 5799 5799 5801 5804 5804 5804 5805 5805 5807 5809 5809 5810
5580 5582 5585 5586 5588 5590 5592 5594 5597 5599 5602 5604 5607 5608 5609 5612 5615 5616 5619 5622 5626 5629 5633 5635 5640 5647 5648 5650 5655 5660 5667 5673 5676 5679 5681 5686 5692 5695 5698 5702 5706 5709 5713 5716 5719 5722 5725 5729 5733 5737 5740 5743 5745 5749 5753 5756 5757 5758 5762 5766 5770 5774 5777 5781 5786 5784 5780 5781 5787 5791 5793 5797 5800 5797 5794 5795 5797 5797 5799 5801 5801 5801 5802 5803 5805 5806 5807 5808
5572 5575 5577 5579 5581 5584 5586 5588 5591 5593 5596 5599 5601 5603 5605 5608 5610 5612 5614 5617 5621 5625 5628 5630 5634 5641 5644 5646 5651 5658 5664 5668 5671 5674 5677 5683 5689 5691 5694 5699 5703 5705 5709 5713 5717 5719 5723 5727 5731 5734 5737 5740 5743 5746 5750 5752 5754 5756 5759 5763 5767 5773 5776 5780 5785 5785 5780 5779 5784 5789 5791 5795 5797 5794 5791 5791 5794 5796 5798 5799 5798 5797 5800 5800 5802 5803 5803 5806
5564 5567 5570 5572 5574 5577 5580 5583 5585 5588 5591 5594 5596 5598 5601 5604 5606 5608 5610 5613 5617 5621 5623 5625 5630 5637 5639 5641 5647 5654 5658 5661 5666 5669 5673 5680 5685 5687 5691 5695 5699 5702 5706 5711 5713 5716 5719 5724 5728 5731 5734 5737 5740 5743 5747 5749 5751 5754 5757 5760 5766 5771 5776 5779 5780 5780 5779 5778 5781 5786 5789 5792 5792 5790 5790 5789 5791 5793 5795 5797 5795 5793 5795 5796 5799 5801 5801 5803
5555 5559 5562 5565 5568 5571 5574 5577 5580 5583 5586 5588 5591 5594 5597 5600 5602 5605 5607 5609 5613 5616 5619 5622 5627 5632 5635 5637 5643 5649 5652 5656 5662 5664 5668 5675 5680 5683 5687 5690 5695 5699 5703 5707 5710 5712 5716 5720 5724 5727 5730 5733 5736 5740 5743 5746 5748 5751 5755 5760 5764 5768 5775 5778 5775 5775 5777 5777 5780 5784 5786 5790 5789 5786 5788 5788 5788 5791 5793 5794 5792 5791 5793 5793 5796 5799 5800 5801
5546 5550 5555 5558 5561 5565 5568 5571 5574 5578 5580 5582 5586 5590 5593 5596 5598 5602 5604 5605 5609 5613 5615 5619 5623 5628 5632 5635 5640 5645 5648 5653 5658 5658 5663 5671 5675 5678 5682 5686 5692 5696 5699 5703 5705 5708 5712 5716 5719 5723 5726 5729 5732 5736 5740 5743 5745 5748 5754 5759 5761 5764 5771 5775 5772 5771 5775 5776 5778 5781 5783 5788 5787 5783 5786 5787 5785 5788 5790 5791 5791 5790 5791 5791 5793 5797 5798 5799
5537 5542 5547 5551 5554 5559 5562 5566 5569 5572 5574 5578 5582 5586 5590 5592 5595 5598 5600 5603 5606 5609 5611 5615 5619 5624 5628 5630 5635 5642 5646 5650 5654 5656 5661 5668 5671 5674 5679 5682 5688 5693 5696 5698 5701 5705 5709 5712 5715 5719 5723 5725 5729 5733 5737 5740 5742 5747 5752 5756 5759 5762 5766 5772 5772 5770 5772 5773 5774 5776 5779 5784 5784 5782 5784 5784 5782 5785 5787 5788 5788 5787 5788 5790 5792 5795 5797 5798
5529 5534 5540 5544 5548 5552 5556 5560 5563 5566 5570 5575 5579 5582 5585 5588 5591 5594 5597 5600 5603 5604 5607 5612 5615 5620 5624 5626 5631 5637 5641 5645 5651 5654 5658 5664 5668 5671 5676 5679 5684 5689 5692 5695 5699 5703 5706 5710 5713 5716 5718 5722 5726 5731 5735 5736 5739 5745 5750 5753 5757 5760 5761 5766 5770 5770 5769 5768 5769 5773 5776 5779 5783 5782 5780 5779 5779 5781 5784 5785 5784 5784 5786 5790 5791 5793 5795 5797
5522 5527 5532 5537 5542 5546 5551 5554 5558 5562 5567 5571 5574 5578 5581 5584 5587 5591 5594 5598 5601 5601 5604 5608 5612 5617 5620 5623 5628 5634 5637 5642 5646 5649 5652 5658 5664 5668 5672 5676 5680 5685 5689 5692 5696 5701 5704 5707 5710 5712 5714 5719 5724 5728 5731 5733 5737 5743 5747 5750 5753 5756 5758 5760 5765 5768 5766 5764 5766 5771 5774 5777 5780 5782 5780 5777 5777 5779 5781 5781 5780 5781 5784 5787 5789 5790 5793 5795
5517 5521 5525 5530 5536 5540 5545 5549 5553 5558 5562 5566 5569 5573 5577 5581 5584 5588 5592 5598 5600 5599 5602 5606 5610 5614 5616 5620 5626 5631 5635 5638 5642 5643 5646 5653 5659 5662 5667 5671 5675 5681 5684 5687 5692 5697 5702 5703 5704 5707 5709 5714 5720 5723 5727 5730 5735 5740 5743 5747 5750 5752 5756 5758 5760 5763 5761 5760 5764 5769 5774 5775 5776 5781 5782 5777 5775 5778 5778 5776 5777 5779 5781 5783 5785 5787 5790 5793
5512 5516 5520 5525 5530 5535 5540 5544 5549 5554 5559 5563 5566 5569 5573 5577 5581 5586 5591 5596 5597 5597 5601 5605 5607 5611 5614 5618 5624 5629 5632 5635 5638 5640 5643 5650 5654 5657 5662 5667 5671 5676 5678 5683 5689 5693 5698 5700 5701 5704 5706 5710 5715 5719 5724 5726 5731 5736 5739 5743 5747 5749 5751 5753 5754 5757 5757 5759 5763 5768 5772 5773 5773 5777 5778 5775 5774 5774 5770 5770 5776 5780 5780 5782 5783 5783 5786 5789
5509 5513 5516 5521 5526 5530 5535 5540 5546 5551 5555 5559 5562 5566 5570 5574 5579 5585 5590 5593 5594 5596 5600 5603 5605 5609 5611 5615 5621 5626 5628 5632 5636 5637 5641 5648 5652 5654 5659 5664 5668 5673 5677 5682 5686 5689 5693 5696 5698 5702 5704 5706 5710 5715 5719 5721 5726 5732 5734 5738 5743 5745 5745 5747 5750 5753 5755 5759 5764 5768 5771 5772 5770 5770 5769 5769 5769 5766 5764 5768 5777 5780 5780 5781 5782 5783 5784 5786
5506 5509 5513 5518 5522 5527 5531 5536 5542 5547 5550 5554 5559 5563 5567 5572 5579 5584 5587 5590 5593 5597 5600 5601 5603 5606 5609 5613 5619 5622 5624 5630 5634 5634 5639 5645 5648 5651 5656 5661 5665 5671 5676 5680 5683 5686 5688 5691 5695 5698 5699 5700 5705 5711 5716 5719 5725 5729 5732 5736 5740 5741 5742 5743 5747 5751 5754 5757 5762 5766 5768 5767 5764 5762 5762 5763 5763 5763 5764 5770 5776 5779 5780 5781 5782 5783 5784 5785
5504 5507 5511 5515 5520 5524 5529 5534 5539 5543 5547 5552 5556 5560 5566 5573 5578 5583 5587 5590 5593 5597 5599 5601 5602 5605 5608 5612 5616 5620 5623 5628 5631 5632 5636 5641 5645 5648 5653 5658 5662 5667 5672 5676 5680 5684 5685 5688 5693 5695 5695 5698 5703 5709 5713 5718 5723 5726 5730 5733 5735 5738 5742 5744 5746 5750 5753 5755 5757 5760 5762 5760 5757 5757 5758 5759 5760 5762 5765 5769 5773 5776 5778 5779 5780 5782 5783 5784
5502 5505 5509 5513 5517 5522 5527 5531 5536 5540 5545 5549 5554 5561 5567 5573 5577 5582 5588 5591 5593 5596 5598 5600 5602 5604 5607 5610 5614 5618 5622 5627 5630 5631 5634 5638 5642 5646 5650 5655 5659 5663 5669 5673 5677 5680 5683 5687 5692 5693 5694 5696 5701 5706 5710 5715 5720 5723 5725 5728 5732 5737 5742 5744 5745 5748 5750 5751 5752 5754 5754 5753 5753 5754 5754 5755 5757 5761 5764 5768 5771 5772 5774 5776 5778 5780 5781 5783
5501 5504 5507 5511 5516 5521 5525 5529 5534 5538 5543 5549 5556 5562 5566 5571 5575 5579 5585 5590 5592 5594 5596 5598 5602 5604 5607 5609 5613 5617 5621 5626 5629 5630 5632 5636 5639 5643 5647 5653 5657 5661 5667 5672 5675 5678 5682 5687 5690 5691 5692 5694 5697 5702 5708 5712 5717 5720 5721 5726 5734 5737 5739 5742 5743 5744 5745 5746 5748 5750 5749 5749 5750 5750 5750 5752 5755 5759 5763 5766 5768 5770 5772 5774 5776 5778 5779 5781
5500 5503 5506 5510 5515 5519 5524 5528 5532 5537 5543 5550 5556 5560 5564 5569 5573 5576 5581 5587 5590 5593 5595 5597 5600 5605 5609 5611 5614 5617 5620 5623 5626 5628 5631 5634 5638 5641 5644 5649 5654 5659 5664 5670 5674 5677 5680 5686 5689 5689 5690 5693 5695 5699 5705 5708 5712 5718 5721 5726 5730 5732 5734 5737 5739 5740 5741 5742 5746 5747 5746 5747 5748 5748 5749 5752 5754 5758 5761 5764 5766 5769 5771 5772 5774 5776 5777 5779
5500 5503 5506 5509 5514 5518 5523 5527 5531 5537 5544 5549 5554 5560 5565 5569 5573 5575 5578 5584 5589 5591 5594 5596 5598 5601 5607 5612 5616 5617 5620 5623 5625 5627 5631 5634 5638 5640 5642 5647 5652 5657 5662 5667 5672 5674 5677 5683 5687 5686 5688 5692 5693 5695 5700 5704 5707 5714 5720 5722 5724 5727 5730 5733 5735 5738 5739 5740 5743 5744 5743 5744 5745 5746 5748 5751 5753 5756 5759 5762 5764 5767 5769 5770 5772 5773 5775 5777
5500 5503 5506 5510 5514 5518 5522 5526 5531 5538 5545 5550 5554 5560 5565 5568 5572 5575 5576 5581 5586 5588 5591 5595 5597 5599 5603 5609 5616 5619 5620 5623 5625 5628 5631 5635 5638 5640 5642 5646 5650 5654 5660 5665 5670 5672 5674 5679 5683 5685 5686 5689 5689 5691 5696 5700 5704 5709 5714 5718 5720 5722 5726 5730 5733 5735 5737 5738 5740 5741 5741 5741 5741 5743 5746 5748 5750 5753 5756 5759 5761 5763 5765 5767 5768 5771 5773 5775
5501 5505 5508 5511 5514 5519 5523 5527 5533 5540 5546 5550 5555 5560 5564 5568 5571 5575 5576 5579 5584 5587 5589 5592 5596 5599 5601 5604 5611 5617 5621 5623 5626 5629 5631 5634 5637 5639 5642 5645 5649 5653 5658 5663 5667 5670 5672 5676 5679 5681 5683 5684 5686 5691 5695 5699 5703 5706 5709 5713 5716 5718 5722 5726 5729 5732 5735 5736 5737 5739 5740 5738 5737 5740 5742 5743 5745 5749 5752 5754 5757 5759 5761 5763 5766 5769 5770 5772
5503 5507 5510 5513 5516 5521 5526 5531 5536 5541 5545 5550 5555 5559 5564 5567 5570 5574 5576 5578 5582 5586 5589 5591 5594 5598 5600 5603 5607 5613 5619 5623 5626 5629 5631 5633 5635 5638 5641 5644 5649 5652 5656 5660 5665 5667 5670 5673 5675 5677 5679 5682 5686 5690 5693 5697 5702 5706 5707 5709 5714 5717 5718 5722 5726 5730 5732 5733 5735 5738 5738 5735 5735 5737 5739 5739 5741 5744 5747 5750 5753 5755 5758 5761 5764 5766 5768 5770
5505 5510 5513 5516 5519 5523 5528 5533 5537 5541 5545 5550 5555 5559 5563 5566 5569 5572 5575 5578 5582 5587 5589 5592 5594 5597 5600 5603 5607 5611 5615 5622 5626 5629 5631 5633 5634 5637 5640 5644 5649 5652 5655 5659 5663 5665 5667 5670 5673 5675 5678 5682 5686 5689 5691 5693 5697 5703 5705 5707 5711 5715 5717 5719 5724 5727 5729 5730 5733 5734 5733 5731 5732 5734 5735 5736 5738 5740 5744 5747 5749 5752 5755 5758 5761 5763 5765 5768
5507 5512 5515 5518 5522 5525 5529 5534 5538 5541 5546 5550 5554 5558 5562 5565 5568 5572 5575 5578 5582 5585 5587 5590 5594 5597 5599 5602 5605 5608 5612 5617 5624 5628 5630 5632 5633 5636 5639 5644 5649 5652 5654 5658 5660 5661 5664 5667 5670 5673 5675 5679 5682 5685 5687 5688 5691 5697 5702 5704 5707 5712 5717 5719 5721 5723 5725 5726 5729 5730 5729 5728 5729 5731 5732 5733 5736 5739 5742 5744 5747 5750 5753 5755 5758 5760 5763 5765
5508 5513 5517 5520 5524 5527 5531 5535 5538 5541 5546 5551 5554 5558 5562 5565 5568 5571 5574 5577 5579 5582 5585 5589 5593 5596 5599 5601 5604 5607 5609 5612 5617 5625 5629 5630 5631 5633 5637 5642 5647 5650 5653 5656 5658 5660 5663 5666 5667 5669 5672 5674 5676 5679 5682 5684 5688 5692 5698 5701 5703 5707 5713 5716 5717 5719 5720 5722 5725 5726 5725 5725 5727 5727 5728 5732 5736 5738 5740 5742 5744 5747 5749 5752 5756 5758 5761 5763
5511 5515 5518 5522 5526 5529 5533 5537 5540 5544 5547 5551 5555 5558 5562 5565 5568 5571 5574 5576 5578 5581 5584 5588 5591 5595 5598 5601 5603 5606 5610 5612 5615 5622 5627 5627 5628 5632 5636 5639 5643 5648 5651 5654 5655 5657 5660 5663 5666 5668 5671 5674 5678 5680 5683 5686 5689 5690 5694 5699 5701 5703 5708 5712 5715 5715 5717 5720 5722 5721 5721 5723 5723 5724 5726 5729 5733 5735 5736 5738 5741 5743 5747 5750 5753 5756 5759 5761
5514 5518 5521 5524 5527 5531 5534 5538 5542 5546 5549 5553 5556 5559 5563 5566 5569 5572 5574 5576 5578 5579 5581 5585 5589 5594 5597 5601 5604 5607 5610 5613 5615 5619 5623 5625 5627 5632 5635 5637 5641 5644 5647 5650 5652 5653 5656 5660 5664 5667 5670 5674 5678 5680 5681 5684 5686 5688 5692 5696 5700 5701 5704 5708 5711 5713 5715 5718 5718 5717 5719 5720 5721 5722 5724 5727 5729 5731 5733 5736 5738 5741 5745 5748 5751 5754 5756 5758
5517 5520 5522 5526 5529 5533 5538 5541 5544 5547 5551 5555 5558 5560 5563 5566 5569 5572 5574 5576 5578 5581 5584 5587 5591 5594 5597 5601 5604 5607 5610 5613 5615 5618 5621 5623 5626 5630 5632 5635 5638 5640 5643 5647 5649 5651 5654 5657 5661 5664 5666 5670 5673 5675 5678 5681 5684 5687 5691 5694 5697 5699 5701 5703 5707 5710 5714 5715 5714 5714 5717 5718 5719 5721 5723 5725 5726 5728 5731 5733 5735 5739 5742 5745 5748 5751 5754 5756
5519 5522 5525 5529 5532 5536 5540 5543 5546 5549 5553 5556 5559 5560 5563 5566 5569 5572 5574 5576 5579 5583 5586 5589 5591 5594 5597 5600 5603 5606 5609 5612 5615 5616 5619 5622 5625 5628 5631 5633 5636 5638 5642 5645 5647 5650 5653 5655 5658 5661 5663 5666 5669 5672 5675 5678 5681 5685 5688 5691 5694 5697 5699 5702 5704 5707 5710 5711 5711 5711 5713 5715 5716 5717 5720 5723 5725 5726 5728 5731 5733 5736 5739 5743 5746 5749 5751 5753
5522 5525 5528 5532 5536 5539 5542 5545 5548 5551 5555 5558 5560 5562 5564 5566 5568 5571 5573 5576 5579 5582 5585 5588 5591 5593 5596 5598 5601 5604 5607 5611 5614 5616 5617 5619 5623 5627 5630 5632 5635 5637 5641 5644 5646 5649 5652 5654 5656 5659 5662 5664 5667 5669 5672 5675 5678 5681 5684 5688 5691 5694 5698 5700 5701 5702 5704 5705 5706 5708 5710 5712 5713 5715 5718 5721 5724 5725 5727 5729 5732 5735 5737 5741 5743 5746 5748 5750
5525 5527 5531 5535 5538 5541 5545 5548 5551 5554 5557 5560 5562 5564 5566 5568 5570 5572 5574 5576 5579 5581 5584 5587 5590 5592 5595 5597 5600 5604 5606 5609 5612 5614 5616 5618 5622 5626 5629 5632 5634 5636 5640 5643 5645 5647 5650 5652 5655 5658 5660 5663 5666 5668 5670 5673 5675 5678 5680 5683 5686 5689 5692 5694 5695 5697 5699 5701 5702 5705 5707 5710 5712 5713 5715 5718 5721 5724 5726 5728 5730 5733 5735 5738 5740 5743 5745 5746
5526 5529 5533 5537 5540 5544 5548 5551 5554 5556 5559 5561 5564 5566 5568 5570 5572 5573 5575 5577 5580 5582 5584 5587 5590 5592 5595 5598 5601 5603 5605 5607 5609 5612 5615 5618 5620 5624 5627 5629 5632 5635 5638 5641 5643 5645 5648 5650 5653 5656 5659 5662 5663 5665 5668 5670 5672 5675 5676 5676 5679 5682 5684 5687 5690 5692 5695 5697 5699 5702 5705 5708 5710 5711 5713 5716 5719 5721 5724 5726 5728 5731 5733 5736 5738 5740 5742 5743